Location: Lane
(33.5226°N, 79.8788°W)
Time: 06:17:34
(UTC+00:00)

Tiros 1 - Pass Details

Date: 10 October 2022
Orbit: 629 x 662 km, 48.4° (Epoch: 09 December)

Event Time Altitude Azimuth Distance (km) Brightness Sun altitude
Exits shadow 09:32:20 15° 182° (S) 1,717 9.2 -23.3°
Drops below altitude 10° 09:33:24 10° 173° (S) 2,031 9.7 -23.1°
Sets 09:36:00 0° 160° (SSE) 2,930 10.7 -22.5°
